Regional Weather Roundup
Issued by NWS Charleston, SC

Current Version | Previous Version | Graphics & Text | Print | Product List | Glossary On
Versions: 1 2 3 4 5 6 7 8 9 10 11 12 13 14 15 16 17 18 19 20 21 22 23 24 25 26 27 28 29 30 31 32 33 34 35 36 37 38 39 40 41 42 43 44 45 46 47 48 49 50
000 ASUS42 KCHS 190027 RWRCHS Regional Weather Roundup National Weather Service Charleston SC 800 PM EDT WED APR 18 2018 NOTE: "fair" indicates few or no clouds below 12,000 feet with no significant weather and/or obstructions to visibility. Not all stations are quality controlled. Use data with caution, especially dewpoint observations. SCZ027-030-031-034>040-042>050-190100- ...Southeast South Carolina... CITY SKY/WX TMP DP RH WIND PRES REMARKS N Charleston FAIR 69 54 58 S13 29.93S 6HR MIN TEMP: 69; 6HR MAX TEMP: 87; Waterfront Prk N/A 69 55 60 SW13 29.78S Mount Pleasant FAIR 70 54 56 SW12 29.93F Johns Island FAIR 68 55 64 SW16G24 29.94F Pinopolis N/A 79 52 38 S5G13 29.83S Moncks Corner FAIR 72 52 49 S8 29.90S Summerville FAIR 72 55 56 S5 29.92S Beaufort MCAS FAIR 72 59 63 S7 29.94F 6HR MIN TEMP: 72; 6HR MAX TEMP: 88; Beaufort Arpt FAIR 68 57 68 S16 29.94F Hilton Head Is FAIR 70 57 64 VRB13G23 29.97S Walterboro FAIR 73 46 38 CALM 29.92S Allendale FAIR 79 46 31 CALM 29.90S ...Southern Midlands and Pee Dee... CITY SKY/WX TMP DP RH WIND PRES REMARKS Georgetown FAIR 66 52 59 SW12G17 29.92S Kingstree FAIR 75 43 31 S5 29.86F Orangeburg FAIR 78 45 30 SW13 29.88F 6HR MIN TEMP: 78; 6HR MAX TEMP: 85; Barnwell FAIR 77 46 33 SW8 29.89F Aiken FAIR 75 46 35 S10G17 29.91S Manning FAIR 72 43 35 SW6 29.87F Columbia FAIR 82 45 27 SW12G20 29.83F 6HR MIN TEMP: 82; 6HR MAX TEMP: 88; Sumter FAIR 78 46 32 SW14 29.82F 6HR MIN TEMP: 78; 6HR MAX TEMP: 87; Florence FAIR 79 46 31 SW15 29.82F 6HR MIN TEMP: 79; 6HR MAX TEMP: 87; Myrtle Beach FAIR 69 56 62 SW13 29.88S N Myrtle Beach FAIR 66 57 72 SW24G32 29.86S 6HR MIN TEMP: 66; 6HR MAX TEMP: 74; 6HR PCP: TRACE; $$ GAZ063-065-086>088-099>101-113>116-118-119-134>141-150-190100- ...Southeast Georgia... CITY SKY/WX TMP DP RH WIND PRES REMARKS Savannah Arpt FAIR 81 44 27 SW9 29.95F 6HR MIN TEMP: 81; 6HR MAX TEMP: 88; Hunter AAF FAIR 79 52 38 S7 29.93F 6HR MIN TEMP: 79; 6HR MAX TEMP: 87; Fort Stewart FAIR 81 44 26 SW8 29.94F 6HR MIN TEMP: 81; 6HR MAX TEMP: 88; Statesboro FAIR 79 41 25 SW6 29.93F Sylvania FAIR 81 52 36 SW6 29.94S Claxton FAIR 76 52 42 S3 29.95S ...CSRA, Central and far Southeast Georgia... CITY SKY/WX TMP DP RH WIND PRES REMARKS Thomson FAIR 76 47 35 W6 29.93R Augusta-Bush FAIR 78 50 37 S12 29.88F 6HR MIN TEMP: 78; 6HR MAX TEMP: 86; Augusta-Daniel FAIR 82 46 28 SW13 29.88F Swainsboro FAIR 79 50 36 SW7 29.94F Vidalia FAIR 77 54 44 SW5 29.96S Eastman FAIR 77 40 26 SW6 29.97F Hazlehurst FAIR 79 46 31 SW7 29.96S Alma FAIR 79 43 27 SW8 29.98F 6HR MIN TEMP: 79; 6HR MAX TEMP: 88; Waycross FAIR 76 32 19 SW8 30.00F Jesup NOT AVBL Baxley FAIR 72 50 46 SW7 29.97F Brunswick FAIR 79 37 22 SW12 30.00F Saint Simons FAIR 73 60 63 SW6 30.00F 6HR MIN TEMP: 71; 6HR MAX TEMP: 84; $$ SCZ027-028-034-036>038-045-046-048>050-GAZ119-141-190100- ...Lake and Supplemental Coastal Observations... STATION/POSITION TIME TEMP WIND PRES WAVE SWELL AIR SEA DIR/SP/G HT/PER HT/PER/DIR (UTC) (F) (DEG/KT/KT) (MB) (FT/S) (FT/S/D) Winyah Bay 2345 68 220/ 15 1013.0R Lake Murray 2320 80 230/ 14/ 17 1009.8S ACE Basin NERRS 2345 70 350/ 1 N/A Fort Pulaski 0000 68 65 210/ 9/ 12 1015.0 Sapelo Island 0000 71 180/ 10 1015.0 $$ ANZ835-935-AMZ111-154-330-350-352-354-370-450-454-472-190100- ...C-MAN and Buoy Observations... STATION/POSITION TIME TEMP WIND PRES WAVE SWELL AIR SEA DIR/SP/G HT/PER HT/PER/DIR (UTC) (F) (DEG/KT/KT) (MB) (FT/S) (FT/S/D) Buoy 41004 0000 70 200/ 19/ 23 1014.3 Buoy 41008 2350 68 65 170/ 16/ 17 1015.2F 3/ 4 2/100/ 9 Folly Beach CMAN 0000 66 220/ 13/ 15 1014.5F Capers Nearshore 0008 61 63 220/ 14/ 17 1013.2F Fripp Nearshore 0008 67 64 200/ 16/ 23 1013.7F STATION/POSITION TIME TEMP WIND PRES WAVE SWELL AIR SEA DIR/SP/G HT/PER HT/PER/DIR (UTC) (F) (DEG/KT/KT) (MB) (FT/S) (FT/S/D) 5E St. Marys GA 0000 66 N/A 2/ 3 Frying Pan Buoy 0000 69 210/ 25/ 31 1011.9 Buoy 41025 0010 68 65 220/ 19/ 25 1010.2 Cape Lookout NC 0000 220/ 13/ 20 1010.4F Buoy 41002 0000 72 230/ 17/ 19 1016.6 Buoy 41010 0000 74 74 180/ 6/ 8 1019.5 St Augustine FL 0000 70 69 180/ 11/ 12 1018.1S $$

USA.gov is the U.S. government's official web portal to all federal, state and local government web resources and services.